Glendive, MT

11:13 PM MST on February 20, 2017 (GMT -0700)
Dawson Community

Weather History for KGDV - March, 2014

Change the Weather History Date:

Tuesday, March 18, 2014

  Actual Average Record
Temperature  
Mean Temperature 33 °F -  
Max Temperature 42 °F 40 °F 66 °F (2012)
Min Temperature 24 °F 19 °F 0 °F (2013)
Degree Days  
Heating Degree Days 32    
Moisture  
Dew Point 24 °F    
Average Humidity 72    
Maximum Humidity 93    
Minimum Humidity 42    
Precipitation  
Precipitation 0.00 in - - ()
Sea Level Pressure  
Sea Level Pressure 29.95 in    
Wind  
Wind Speed 13 mph (NW)    
Max Wind Speed 21 mph    
Max Gust Speed 26 mph    
Visibility 10 miles    
Events      
Averages and records for this station are not official NWS values.
T = Trace of Precipitation, MM = Missing Value Source: NWS Daily Summary

Daily Weather History Graph

Daily Weather History Graph

Search for Another Location

Airport or City:

Trip Planner

Search our weather history database for the weather conditions in past years. The results will help you decide how hot, cold, wet, or windy it might be!

Date:

Astronomy

Mar. 18, 2014 Rise Set
Actual Time 7:06 AM MDT 7:09 PM MDT
Civil Twilight 6:35 AM MDT 7:39 PM MDT
Nautical Twilight 6:00 AM MDT 8:15 PM MDT
Astronomical Twilight 5:23 AM MDT 8:52 PM MDT
Moon 9:40 PM MDT (3/18) 7:48 AM MDT (3/18)
Length of Visible Light 13h 04m
Length of Day
12h 03m
Waning Gibbous, 96% of the Moon is Illuminated
Mar 18
Waning Gibbous
Mar 23
Last Quarter
Mar 30
New
Apr 7
First Quarter
Apr 15
Full

Hourly Weather History & Observations

Time (MDT) Temp. Windchill Dew Point Humidity Pressure Visibility Wind Dir Wind Speed Gust Speed Precip Events Conditions
12:15 AM 33.8 °F 25.3 °F 26.6 °F 75% 29.77 in 10.0 mi NW 11.5 mph - N/A   Clear
12:35 AM 32.0 °F 22.5 °F 24.8 °F 75% 29.78 in 10.0 mi NW 12.7 mph - N/A   Clear
12:55 AM 32.0 °F 22.5 °F 26.6 °F 80% 29.78 in 10.0 mi NW 12.7 mph - N/A   Clear
1:15 AM 32.0 °F 22.1 °F 26.6 °F 80% 29.79 in 10.0 mi NW 13.8 mph - N/A   Clear
1:35 AM 30.2 °F 19.3 °F 26.6 °F 86% 29.80 in 10.0 mi NW 15.0 mph - N/A   Clear
1:55 AM 30.2 °F 19.8 °F 26.6 °F 86% 29.80 in 10.0 mi NNW 13.8 mph - N/A   Clear
2:15 AM 30.2 °F 19.3 °F 26.6 °F 86% 29.80 in 10.0 mi NW 15.0 mph - N/A   Clear
2:35 AM 30.2 °F 19.8 °F 26.6 °F 86% 29.81 in 10.0 mi NNW 13.8 mph - N/A   Clear
2:55 AM 30.2 °F 21.9 °F 26.6 °F 86% 29.82 in 10.0 mi NW 9.2 mph - N/A   Clear
3:15 AM 30.2 °F 21.3 °F 26.6 °F 86% 29.82 in 10.0 mi NW 10.4 mph - N/A   Clear
3:35 AM 30.2 °F 21.9 °F 26.6 °F 86% 29.83 in 10.0 mi WNW 9.2 mph - N/A   Clear
3:55 AM 26.6 °F 21.2 °F 24.8 °F 93% 29.84 in 10.0 mi West 4.6 mph - N/A   Clear
4:15 AM 30.2 °F 21.3 °F 28.4 °F 93% 29.83 in 10.0 mi NW 10.4 mph - N/A   Clear
4:35 AM 30.2 °F 20.8 °F 26.6 °F 86% 29.84 in 10.0 mi WNW 11.5 mph - N/A   Clear
4:55 AM 30.2 °F 18.1 °F 26.6 °F 86% 29.84 in 10.0 mi NW 18.4 mph 23.0 mph N/A   Clear
5:15 AM 30.2 °F 19.3 °F 24.8 °F 80% 29.85 in 10.0 mi NW 15.0 mph - N/A   Clear
5:35 AM 28.4 °F 17.0 °F 24.8 °F 86% 29.86 in 10.0 mi NW 15.0 mph - N/A   Clear
5:55 AM 28.4 °F 18.0 °F 24.8 °F 86% 29.87 in 10.0 mi NW 12.7 mph - N/A   Clear
6:15 AM 28.4 °F 17.0 °F 26.6 °F 93% 29.87 in 10.0 mi NW 15.0 mph - N/A   Clear
6:35 AM 28.4 °F 17.5 °F 24.8 °F 86% 29.88 in 10.0 mi NW 13.8 mph - N/A   Clear
6:55 AM 28.4 °F 18.0 °F 24.8 °F 86% 29.89 in 10.0 mi NW 12.7 mph - N/A   Clear
7:15 AM 28.4 °F 17.0 °F 24.8 °F 86% 29.90 in 10.0 mi NW 15.0 mph - N/A   Clear
7:35 AM 28.4 °F 16.6 °F 24.8 °F 86% 29.90 in 10.0 mi NW 16.1 mph - N/A   Clear
7:55 AM 28.4 °F 17.5 °F 24.8 °F 86% 29.91 in 10.0 mi NW 13.8 mph - N/A   Clear
8:15 AM 28.4 °F 18.5 °F 26.6 °F 93% 29.92 in 10.0 mi NW 11.5 mph - N/A   Clear
8:35 AM 30.2 °F 20.2 °F 26.6 °F 86% 29.92 in 10.0 mi NW 12.7 mph 19.6 mph N/A   Clear
8:55 AM 32.0 °F 21.6 °F 26.6 °F 80% 29.93 in 10.0 mi NW 15.0 mph 21.9 mph N/A   Clear
9:15 AM 33.8 °F 22.8 °F 28.4 °F 81% 29.95 in 10.0 mi WNW 18.4 mph 23.0 mph N/A   Partly Cloudy
9:35 AM 33.8 °F 23.5 °F 28.4 °F 81% 29.95 in 10.0 mi NW 16.1 mph 23.0 mph N/A   Partly Cloudy
9:55 AM 33.8 °F 22.2 °F 28.4 °F 81% 29.97 in 10.0 mi NW 20.7 mph 25.3 mph N/A   Clear
10:15 AM 33.8 °F 23.2 °F 28.4 °F 81% 29.98 in 10.0 mi WNW 17.3 mph 25.3 mph N/A   Mostly Cloudy
10:35 AM 33.8 °F 23.5 °F 26.6 °F 75% 29.99 in 10.0 mi NW 16.1 mph - N/A   Overcast
10:55 AM 32.0 °F 20.8 °F 26.6 °F 80% 30.00 in 10.0 mi NW 17.3 mph - N/A   Overcast
11:15 AM 32.0 °F 21.6 °F 26.6 °F 80% 30.01 in 10.0 mi NW 15.0 mph - N/A   Overcast
11:35 AM 35.6 °F 27.1 °F 28.4 °F 75% 30.01 in 10.0 mi NW 12.7 mph 16.1 mph N/A   Mostly Cloudy
11:55 AM 37.4 °F 28.9 °F 26.6 °F 65% 30.02 in 10.0 mi NW 13.8 mph 17.3 mph N/A   Mostly Cloudy
12:15 PM 37.4 °F 28.9 °F 26.6 °F 65% 30.02 in 10.0 mi NW 13.8 mph 18.4 mph N/A   Scattered Clouds
12:35 PM 39.2 °F 31.2 °F 26.6 °F 61% 30.02 in 10.0 mi NW 13.8 mph - N/A   Mostly Cloudy
12:55 PM 39.2 °F 30.2 °F 26.6 °F 61% 30.02 in 10.0 mi WNW 17.3 mph 21.9 mph N/A   Mostly Cloudy
1:15 PM 41.0 °F 32.8 °F 24.8 °F 53% 30.02 in 10.0 mi WNW 16.1 mph 21.9 mph N/A   Mostly Cloudy
1:35 PM 39.2 °F 31.2 °F 24.8 °F 56% 30.02 in 10.0 mi NW 13.8 mph 18.4 mph N/A   Overcast
1:55 PM 39.2 °F 31.6 °F 23.0 °F 52% 30.02 in 10.0 mi NW 12.7 mph 20.7 mph N/A   Overcast
2:15 PM 42.8 °F 35.1 °F 21.2 °F 42% 30.01 in 10.0 mi NW 16.1 mph 26.5 mph N/A   Mostly Cloudy
2:35 PM 42.8 °F 35.1 °F 23.0 °F 46% 30.01 in 10.0 mi NW 16.1 mph 25.3 mph N/A   Mostly Cloudy
2:55 PM 42.8 °F 35.8 °F 21.2 °F 42% 30.00 in 10.0 mi NW 13.8 mph - N/A   Scattered Clouds
3:15 PM 42.8 °F 34.8 °F 23.0 °F 46% 30.00 in 10.0 mi NW 17.3 mph 21.9 mph N/A   Mostly Cloudy
3:35 PM 42.8 °F 34.8 °F 21.2 °F 42% 30.00 in 10.0 mi NNW 17.3 mph 23.0 mph N/A   Mostly Cloudy
3:55 PM 42.8 °F 35.1 °F 21.2 °F 42% 30.00 in 10.0 mi NNW 16.1 mph 20.7 mph N/A   Overcast
4:15 PM 41.0 °F 33.1 °F 21.2 °F 45% 30.00 in 10.0 mi NW 15.0 mph - N/A   Scattered Clouds
4:35 PM 39.2 °F 30.5 °F 19.4 °F 45% 30.00 in 10.0 mi NW 16.1 mph - N/A   Partly Cloudy
4:55 PM 41.0 °F 33.1 °F 21.2 °F 45% 30.00 in 10.0 mi NW 15.0 mph 19.6 mph N/A   Clear
5:15 PM 41.0 °F 32.8 °F 21.2 °F 45% 30.00 in 10.0 mi WNW 16.1 mph 19.6 mph N/A   Partly Cloudy
5:35 PM 39.2 °F 31.6 °F 21.2 °F 49% 30.01 in 10.0 mi WNW 12.7 mph - N/A   Partly Cloudy
5:55 PM 41.0 °F 34.7 °F 21.2 °F 45% 30.01 in 10.0 mi NW 10.4 mph - N/A   Clear
6:15 PM 39.2 °F 31.6 °F 21.2 °F 49% 30.01 in 10.0 mi WNW 12.7 mph - N/A   Clear
6:35 PM 39.2 °F 34.2 °F 21.2 °F 49% 30.01 in 10.0 mi WNW 6.9 mph - N/A   Partly Cloudy
6:55 PM 37.4 °F 31.4 °F 21.2 °F 52% 30.01 in 10.0 mi WNW 8.1 mph - N/A   Scattered Clouds
7:15 PM 35.6 °F 29.2 °F 21.2 °F 56% 30.02 in 10.0 mi NW 8.1 mph - N/A   Clear
7:35 PM 33.8 °F 28.6 °F 21.2 °F 60% 30.02 in 10.0 mi NW 5.8 mph - N/A   Clear
7:55 PM 32.0 °F 25.6 °F 21.2 °F 64% 30.02 in 10.0 mi WNW 6.9 mph - N/A   Clear
8:15 PM 28.4 °F 22.2 °F 19.4 °F 69% 30.02 in 10.0 mi West 5.8 mph - N/A   Clear
8:35 PM 26.6 °F 19.1 °F 19.4 °F 74% 30.02 in 10.0 mi West 6.9 mph - N/A   Clear
8:55 PM 26.6 °F 18.2 °F 19.4 °F 74% 30.02 in 10.0 mi West 8.1 mph - N/A   Clear
9:15 PM 26.6 °F 17.5 °F 21.2 °F 80% 30.03 in 10.0 mi West 9.2 mph - N/A   Clear
9:35 PM 24.8 °F 16.9 °F 19.4 °F 80% 30.02 in 10.0 mi West 6.9 mph - N/A   Clear
9:55 PM 24.8 °F 15.3 °F 19.4 °F 80% 30.02 in 10.0 mi West 9.2 mph - N/A   Clear
10:15 PM 24.8 °F 16.1 °F 19.4 °F 80% 30.02 in 10.0 mi West 8.1 mph - N/A   Clear
10:35 PM 24.8 °F 16.1 °F 19.4 °F 80% 30.02 in 10.0 mi West 8.1 mph - N/A   Partly Cloudy
10:55 PM 28.4 °F 21.2 °F 24.8 °F 86% 30.02 in 10.0 mi NW 6.9 mph - N/A   Scattered Clouds
11:15 PM 30.2 °F 25.4 °F 24.8 °F 80% 30.01 in 10.0 mi West 4.6 mph - N/A   Overcast
11:35 PM 30.2 °F 25.4 °F 24.8 °F 80% 30.01 in 10.0 mi West 4.6 mph - N/A   Overcast
11:55 PM 30.2 °F 25.4 °F 26.6 °F 86% 30.01 in 10.0 mi SSE 4.6 mph - N/A   Overcast